7 * 24
多渠道服务支持
STARLINK-32615 是 SpaceX Starlink 项目中的一颗低轨通信卫星,属于第三代星链卫星(v1.5)。该卫星于2023年发射,旨在增强全球互联网覆盖,提供低延迟、高速度的网络服务。它运行在约540公里高的轨道上,配备先进推进系统和激光通信设备,以提升连接效率和减少地面基站依赖。作为 Starlink 网络的重要组成部分,该卫星支持偏远地区通信,助力全球数字包容。
  
                美国
                (US)
                | 数据来源 | 国际轨道数据 | 
| 星历时间: | 2025-11-03T13:28:21+0800 1天前 查看轨道信息 | 
| 半长轴: | 6861.073km | 
| 偏心率: | 0.000125 | 
| 轨道倾角: | 43.001° | 
| 近地点辐角 | 277.104° | 
| 升交点赤经 | 250.627° | 
| 平近点角 | 82.967° | 
| 近地点: | 482.08km | 
| 远地点: | 483.796km | 
| 周期: | 94.264分钟 | 
| 每日圈数: | 15.27618 |